Regional Weather Roundup
Issued by NWS Newport/Morehead, NC

Current Version | Previous Version | Graphics & Text | Print | Product List | Glossary Off
Versions: 1 2 3 4 5 6 7 8 9 10 11 12 13 14 15 16 17 18 19 20 21 22 23 24 25 26 27 28 29 30 31 32 33 34 35 36 37 38 39 40 41 42 43 44 45 46 47 48 49 50

000
ASUS42 KMHX 191910
RWRMHX
WEATHER ROUNDUP FOR EASTERN NORTH CAROLINA
NATIONAL WEATHER SERVICE NEWPORT/MOREHEAD CITY NC
200 PM EST FRI DEC 19 2014

NOTE: "FAIR" INDICATES FEW OR NO CLOUDS BELOW 12,000 FEET
WITH NO SIGNIFICANT WEATHER AND/OR OBSTRUCTIONS TO VISIBILITY

NCZ015>017-031-032-045>047-102-103-192000-
NORTH COAST

CITY           SKY/WX    TMP DP  RH WIND       PRES   REMARKS
EDENTON        SUNNY     48  29  48 N5        30.12S
ELIZABETH CITY SUNNY     50  27  40 NE5       30.12F
KITTY HAWK     CLEAR     44  32  63 N7        30.11S
MANTEO         SUNNY     44  32  63 N7        30.12S

$$

NCZ045>047-081-094-103-104-192000-
CENTRAL COAST

CITY           SKY/WX    TMP DP  RH WIND       PRES   REMARKS
FRISCO         SUNNY     47  36  65 NE8       30.11F
SWANQUARTER      N/A     50 N/A N/A VRB3G9    30.06S

$$

NCZ095-097-098-100-101-192000-
SOUTHERN COAST

CITY           SKY/WX    TMP DP  RH WIND       PRES   REMARKS
BEAUFORT       SUNNY     54  30  40 NW7       30.10F
CEDAR ISLAND     N/A     46 N/A N/A NW3G9     30.15S
JACKSONVILLE   SUNNY     55  27  34 N7        30.10F
PINEY ISLAND   CLEAR     51  31  46 NE7       30.11F
WILMINGTON     SUNNY     59  26  28 N6        30.10F


$$

NCZ011>013-027>030-043-044-078>080-089-090>093-098-192000-
COASTAL PLAIN

CITY           SKY/WX    TMP DP  RH WIND       PRES   REMARKS
AHOSKIE        SUNNY     45  26  47 NW3       30.12F
CLINTON        SUNNY     54  28  37 N3        30.11F
ELIZABETHTOWN  SUNNY     56  26  31 CALM      30.10F
GOLDSBORO      SUNNY     51  31  46 NW1       30.10F
GREENVILLE     SUNNY     48  30  49 N3        30.13F
HAVELOCK       SUNNY     54  28  36 NW8       30.11F
KENANSVILLE    SUNNY     53  25  34 NE3       30.12F
KINSTON        SUNNY     50  30  46 N5        30.12F
NEW BERN       SUNNY     54  28  36 VRB5      30.11F
RICHLANDS      SUNNY     54  27  35 W5        30.11F
ROCKY MOUNT    SUNNY     50  26  39 NW7       30.12F
WASHINGTON     SUNNY     49  29  46 N6        30.12F
WHITEVILLE     SUNNY     57  24  28 CALM      30.10F

$$

AMZ130-135-150-152-154-156-158-170-250-252-270-ANZ085-086-088-633-658-670-192000-
MARINE OBSERVATIONS

STATION/POSITION TIME  TEMP    WIND        PRES    WAVE   SWELL
                       AIR SEA DIR/SP/G            HT/PER HT/PER
                 (UTC) (F)     (DEG/KT/KT) (MB)    (FT/S) (FT/S)
CHESAPEAKE LIGHT 1800   39     340/ 14/ 17 1020.5
64 E VA BEACH    1900   42 55  340/ 16/ 19 1018.7    4/ 5   2/11
DUCK             1900   41 47   10/  9/ 13 1018.9
2 E DUCK         1900      48                N/A     3/ 4
10 NE DUCK       1900      51                N/A     3/ 5
OREGON INLET     1900   44 50  360/  8/ 13 1019.6
13E OREGON INLT  1900      53                N/A     3/ 4
HATTERAS CG      1900   45 53   20/  8/ 12 1019.9
DIAMOND BUOY     1900   48                 1019.8    3/ 8
17 S OCRACOKE    NOT AVBL
CAPE LOOKOUT     1800   51      20/  6/  8 1019.5
BEAUFORT LAB     1900   51 52   10/  4/  8 1018.5
30 SE NEW RIVER  1900   51 62  350/  8/ 10 1020.1    2/ 8   2/ 8
5 SE WRIGHTSVLE  NOT AVBL
225 S CAPE HAT   1803   67 73  340/  8/ 10 1018.0    3/ 8   3/ 8
41 SE CHARLESTON 1900   62 67   30/  6/ 10 1018.6    1/10   2/10

$$


USA.gov is the U.S. government's official web portal to all federal, state and local government web resources and services.